Location: Grieser Field
(39.7333°N, 81.7975°W)
Time: 15:54:27
(UTC-04:00)

MOS 1-B - Visible Passes

Search period start: 21 August 2017 00:00
Search period end: 31 August 2017 00:00
Orbit: 906 x 913 km, 99.3° (Epoch: 21 August)

Date Brightness Start Highest point End Pass type
(mag) Time Alt. Az. Time Alt. Az. Time Alt. Az.
21 Aug 6.7 03:38:39 10° NE 03:42:10 16° E 03:45:39 10° SE visible
21 Aug 4.4 05:18:42 10° N 05:24:29 68° WNW 05:29:31 14° SSW visible
22 Aug 6.6 03:43:46 10° NE 03:47:39 18° E 03:51:30 10° SE visible
22 Aug 4.4 05:24:09 10° N 05:29:53 62° WNW 05:34:57 13° SSW visible
23 Aug 6.4 03:48:56 10° NE 03:53:08 20° E 03:57:09 11° SE visible
23 Aug 4.5 05:29:37 10° N 05:35:18 56° WNW 05:40:24 13° SW visible
24 Aug 6.3 03:54:08 10° NE 03:58:37 23° E 04:02:36 12° SE visible
24 Aug 4.6 05:35:06 10° N 05:40:41 50° WNW 05:45:50 12° SW visible
25 Aug 6.2 03:59:22 10° NE 04:04:05 25° E 04:08:02 13° SE visible
25 Aug 4.7 05:40:35 10° N 05:46:05 45° WNW 05:51:16 11° SW visible
26 Aug 6.0 04:04:38 10° NE 04:09:34 28° E 04:13:28 14° SSE visible
26 Aug 4.9 05:46:05 10° N 05:51:28 41° WNW 05:56:43 11° SW visible
27 Aug 5.9 04:09:56 10° NE 04:15:01 31° E 04:18:54 15° SSE visible
27 Aug 5.0 05:51:34 10° N 05:56:52 37° WNW 06:02:07 10° SW visible
28 Aug 5.7 04:15:14 10° NNE 04:20:29 34° E 04:24:21 17° SSE visible
28 Aug 5.1 05:57:05 10° N 06:02:14 34° WNW 06:07:22 10° SW visible
29 Aug 5.5 04:20:33 10° NNE 04:25:57 38° E 04:29:47 18° SSE visible
29 Aug 5.2 06:02:38 10° N 06:07:37 31° WNW 06:12:36 10° SW visible
30 Aug 5.3 04:25:54 10° NNE 04:31:24 42° E 04:35:13 19° SSE visible
30 Aug 5.4 06:08:10 10° N 06:12:59 28° WNW 06:17:48 10° WSW visible
